This demonstration page uses our WeatherBlox Daily Observations layout. Learn more.

Left ArrowRight Arrow

41.86663, -103.66717

Hourly Observations for June 9, 2016

Temp ( °F °C ) Dew Point ( °F °C ) Humidity (%) Winds ( mph kmh ) Pressure ( in mb ) Visibility ( mi km ) Precip ( " mm )
12:53 am 00:53 Clear 66 18.9 50 10 56 56 NW 6 9 29.69 1006 10 16 0.00 0.00
1:53 am 01:53 Clear 65 18.3 49 9.4 56 56 NW 6 9 29.69 1005 10 16 0.00 0.00
2:53 am 02:53 Clear 63 17.2 49 9.4 60 60 SW 3 6 29.70 1006 10 16 0.00 0.00
3:53 am 03:53 Clear 59 15 51 10.6 75 75 NE 6 9 29.70 1006 10 16 0.00 0.00
4:53 am 04:53 Clear 55 12.8 49 9.4 80 80 NNW 6 9 29.71 1006 10 16 0.00 0.00
5:53 am 05:53 Sunny 57 13.9 50 10 78 78 NW 7 11 29.72 1006 10 16 0.00 0.00
6:53 am 06:53 Sunny 64 17.8 52 11.1 65 65 WNW 6 9 29.72 1007 10 16 0.00 0.00
7:53 am 07:53 Sunny 70 21.1 54 12.2 57 57 WNW 7 11 29.72 1007 10 16 0.00 0.00
8:53 am 08:53 Sunny 77 25 52 11.1 42 42 WNW 9 15 29.72 1007 10 16 0.00 0.00
9:53 am 09:53 Sunny 82 27.8 51 10.6 34 34 WNW 12 19 29.70 1006 10 16 0.00 0.00
10:53 am 10:53 Sunny 86 30 52 11.1 31 31 WNW 7 11 29.71 1006 10 16 0.00 0.00
11:53 am 11:53 Sunny 90 32.2 50 10 25 25 WNW 6 9 29.70 1006 10 16 0.00 0.00
12:53 pm 12:53 Sunny 92 33.3 46 7.8 21 21 VRB 3 6 29.68 1005 10 16 0.00 0.00
1:53 pm 13:53 Sunny 94 34.4 45 7.2 18 18 VRB 6 9 29.67 1005 10 16 0.00 0.00
2:53 pm 14:53 Sunny 96 35.6 44 6.7 17 17 Calm 29.65 1004 10 16 0.00 0.00
3:22 pm 15:22 Partly Cloudy 93 34 43 6 17 17 S 7 11 29.44 997 10 16 0.00 0.00
3:53 pm 15:53 Sunny 95 35 43 6.1 17 17 SW 7 11 29.65 1004 10 16 0.00 0.00
4:53 pm 16:53 Sunny 96 35.6 44 6.7 17 17 VRB 3 6 29.64 1004 10 16 0.00 0.00
5:53 pm 17:53 Sunny 95 35 44 6.7 17 17 SSW 5 7 29.63 1003 10 16 0.00 0.00
6:53 pm 18:53 Sunny 91 32.8 48 8.9 23 23 SSE 10 17 29.61 1003 10 16 0.00 0.00
7:53 pm 19:53 Sunny 84 28.9 52 11.1 33 33 SE 8 13 29.62 1003 10 16 0.00 0.00
8:53 pm 20:53 Clear 80 26.7 52 11.1 38 38 SE 7 11 29.63 1003 10 16 0.00 0.00
9:53 pm 21:53 Clear 72 22.2 51 10.6 48 48 E 8 13 29.67 1005 10 16 0.00 0.00
10:53 pm 22:53 Mostly Clear 73 22.8 52 11.1 48 48 VRB 3 6 29.68 1005 10 16 0.00 0.00
11:53 pm 23:53 Clear 69 20.6 54 12.2 59 59 NNW 3 6 29.68 1005 10 16 0.00 0.00

Powered by AerisWeather